DW2070 Weather Reports


Display with metric or nautical units.
time (UTC)temp
F
wind
direction
speed
MPH
gust
MPH
rain 1hr
in
rain 24hr
in
rain mn
in
humidity
%
barometer
mb
20260505230004 70 259 6.0 14.0 0.00 0.00 0.00 57 1014.1
20260505225004 68 262 5.0 12.0 0.00 0.00 0.00 60 1014.3
20260505224025 68 269 5.0 12.0 0.00 0.00 0.00 60 1014.4
20260505223025 68 251 5.0 14.0 0.00 0.00 0.00 57 1014.5
20260505222025 68 267 5.0 12.0 0.00 0.00 0.00 56 1014.4
20260505221025 68 268 6.0 13.0 0.00 0.00 0.00 55 1014.5
20260505220004 68 257 5.0 13.0 0.00 0.00 0.00 53 1014.5
20260505215004 68 290 6.0 14.0 0.00 0.00 0.00 55 1014.7
20260505214004 68 255 6.0 19.0 0.00 0.00 0.00 56 1014.8
20260505213004 68 255 7.0 18.0 0.00 0.00 0.00 57 1015.0
20260505210004 70 266 5.0 10.0 0.00 0.00 0.00 54 1014.9
20260505205004 69 277 6.0 13.0 0.00 0.00 0.00 53 1015.0
20260505204025 70 276 6.0 16.0 0.00 0.00 0.00 51 1015.0
20260505203004 71 235 6.0 13.0 0.00 0.00 0.00 48 1014.9
20260505202004 70 245 6.0 14.0 0.00 0.00 0.00 50 1014.9
20260505201004 70 244 4.0 14.0 0.00 0.00 0.00 51 1015.0
20260505200004 69 212 4.0 11.0 0.00 0.00 0.00 52 1015.0
20260505195004 69 260 5.0 12.0 0.00 0.00 0.00 54 1015.1
20260505194004 68 248 5.0 12.0 0.00 0.00 0.00 55 1015.3
20260505193025 68 241 5.0 14.0 0.00 0.00 0.00 54 1015.4
20260505192025 68 243 5.0 11.0 0.00 0.00 0.00 54 1015.4
20260505191004 70 240 6.0 14.0 0.00 0.00 0.00 55 1015.3
20260505190004 70 250 5.0 11.0 0.00 0.00 0.00 54 1015.3
20260505185004 70 254 4.0 10.0 0.00 0.00 0.00 52 1015.1
20260505184004 70 237 4.0 12.0 0.00 0.00 0.00 53 1015.1
20260505183004 70 240 4.0 9.0 0.00 0.00 0.00 51 1015.1
20260505182004 69 257 4.0 10.0 0.00 0.00 0.00 54 1015.0
20260505181004 69 234 3.0 11.0 0.00 0.00 0.00 54 1015.1
20260505180004 69 241 3.0 8.0 0.00 0.00 0.00 56 1014.9
20260505175004 68 190 4.0 8.0 0.00 0.00 0.00 58 1015.0
20260505173004 68 225 3.0 9.0 0.00 0.00 0.00 55 1015.0
20260505172004 67 215 3.0 8.0 0.00 0.00 0.00 59 1014.8
20260505171003 67 239 3.0 5.0 0.00 0.00 0.00 59 1014.7
20260505170004 66 230 3.0 8.0 0.00 0.00 0.00 58 1014.7
20260505165004 66 193 2.0 5.0 0.00 0.00 0.00 59 1014.7
20260505164004 66 208 2.0 7.0 0.00 0.00 0.00 62 1014.6
20260505163025 64 246 2.0 6.0 0.00 0.00 0.00 65 1014.6
20260505162004 63 237 2.0 6.0 0.00 0.00 0.00 68 1014.5
20260505161025 63 243 2.0 4.0 0.00 0.00 0.00 71 1014.5
20260505153025 59 167 2.0 6.0 0.00 0.00 0.00 81 1014.3
20260505152004 58 147 1.0 3.0 0.00 0.00 0.00 86 1014.2
20260505151003 56 0 2.0 2.0 0.00 0.00 0.00 87 1014.3
20260505125004 52 0 0.0 0.0 0.00 0.00 0.00 86 1013.9
20260505124003 52 0 0.0 0.0 0.00 0.00 0.00 85 1013.9
20260505123003 52 0 0.0 0.0 0.00 0.00 0.00 85 1014.0
20260505122003 52 0 0.0 0.0 0.00 0.00 0.00 85 1014.0
20260505121003 52 231 1.0 3.0 0.00 0.00 0.00 85 1013.9
20260505120004 53 0 0.0 2.0 0.00 0.00 0.00 84 1014.0
20260505115004 53 0 0.0 2.0 0.00 0.00 0.00 84 1014.0
20260505114003 53 0 0.0 2.0 0.00 0.00 0.00 83 1014.1
20260505113003 54 0 0.0 0.0 0.00 0.00 0.00 83 1014.0
20260505112024 54 0 0.0 0.0 0.00 0.00 0.00 82 1014.0
20260505111003 54 0 0.0 0.0 0.00 0.00 0.00 81 1014.1
20260505102003 56 0 0.0 2.0 0.00 0.00 0.00 82 1014.0
20260505101003 56 231 0.0 2.0 0.00 0.00 0.00 81 1014.1
20260505100004 57 231 1.0 3.0 0.00 0.00 0.00 81 1014.2
20260505095003 57 231 0.0 3.0 0.00 0.00 0.00 81 1014.2
20260505094025 57 231 1.0 2.0 0.00 0.00 0.00 81 1014.1
20260505093003 57 231 0.0 3.0 0.00 0.00 0.00 81 1014.3
20260505092003 57 0 0.0 4.0 0.00 0.00 0.00 80 1014.5
20260505091003 57 0 0.0 0.0 0.00 0.00 0.00 80 1014.6
20260505090004 58 0 0.0 0.0 0.00 0.00 0.00 80 1014.8
20260505085003 58 233 1.0 3.0 0.00 0.00 0.00 80 1015.0
20260505084003 58 234 1.0 3.0 0.00 0.00 0.00 80 1014.9
20260505083004 58 235 1.0 3.0 0.00 0.00 0.00 79 1015.0
20260505082004 58 235 1.0 3.0 0.00 0.00 0.00 79 1015.1
20260505081004 58 236 1.0 3.0 0.00 0.00 0.00 79 1015.2
20260505080004 58 237 1.0 3.0 0.00 0.00 0.00 79 1015.1
20260505075004 58 0 0.0 2.0 0.00 0.00 0.00 79 1015.2
20260505074025 58 0 0.0 2.0 0.00 0.00 0.00 78 1015.3
20260505073004 58 237 0.0 3.0 0.00 0.00 0.00 78 1015.2
20260505072004 58 237 0.0 2.0 0.00 0.00 0.00 78 1015.2
20260505071004 58 238 1.0 3.0 0.00 0.00 0.00 77 1015.4
20260505070005 58 239 1.0 4.0 0.00 0.00 0.00 77 1015.2
20260505065004 58 240 1.0 3.0 0.00 0.00 0.00 77 1015.3
20260505064004 58 240 1.0 3.0 0.00 0.00 0.00 76 1015.3
20260505063004 58 241 2.0 4.0 0.00 0.00 0.00 75 1015.4
20260505062004 58 241 1.0 5.0 0.00 0.00 0.00 75 1015.2
20260505061025 58 240 1.0 4.0 0.00 0.00 0.00 74 1015.3
20260505060004 58 240 2.0 5.0 0.00 0.00 0.00 74 1015.3
20260505055004 58 238 2.0 4.0 0.00 0.00 0.00 74 1015.3
20260505054004 58 250 2.0 5.0 0.00 0.00 0.00 74 1015.4
20260505053004 58 254 2.0 5.0 0.00 0.00 0.00 74 1015.4
20260505051004 58 255 2.0 5.0 0.00 0.00 0.00 75 1015.5
20260505040005 60 268 2.0 8.0 0.00 0.00 0.00 72 1015.3
20260505035004 60 290 3.0 8.0 0.00 0.00 0.00 71 1015.2
20260505034004 60 252 3.0 9.0 0.00 0.00 0.00 72 1015.3
20260505033004 60 262 3.0 10.0 0.00 0.00 0.00 72 1015.2
20260505032004 60 269 4.0 10.0 0.00 0.00 0.00 72 1015.2
20260505031025 60 261 3.0 10.0 0.00 0.00 0.00 73 1015.1
20260505030025 60 274 2.0 9.0 0.00 0.00 0.00 74 1015.0
20260505025025 61 308 2.0 6.0 0.00 0.00 0.00 74 1014.9
20260505024025 61 279 3.0 8.0 0.00 0.00 0.00 74 1014.8
20260505023004 61 292 3.0 8.0 0.00 0.00 0.00 73 1014.8
20260505022004 61 284 3.0 9.0 0.00 0.00 0.00 71 1014.7
20260505021025 61 256 6.0 15.0 0.00 0.00 0.00 71 1014.8
20260505020004 62 248 7.0 15.0 0.00 0.00 0.00 69 1014.9
20260505015025 62 254 5.0 12.0 0.00 0.00 0.00 69 1014.9
20260505014004 62 249 5.0 11.0 0.00 0.00 0.00 69 1015.0
20260505013004 63 278 5.0 11.0 0.00 0.00 0.00 69 1015.1
20260505012004 63 256 5.0 9.0 0.00 0.00 0.00 69 1015.1
20260505011004 63 254 4.0 14.0 0.00 0.00 0.00 69 1015.2
20260505010004 63 255 4.0 10.0 0.00 0.00 0.00 69 1015.3
20260505005025 63 258 4.0 9.0 0.00 0.00 0.00 69 1015.3
20260505004004 63 237 6.0 12.0 0.00 0.00 0.00 70 1015.4
20260505003025 63 239 6.0 12.0 0.00 0.00 0.00 70 1015.3
20260505002004 64 249 7.0 14.0 0.00 0.00 0.00 70 1015.3
20260505001004 64 242 7.0 15.0 0.00 0.00 0.00 68 1015.2
20260505000004 66 237 6.0 14.0 0.00 0.00 0.00 65 1015.1
20260504235004 65 227 5.0 14.0 0.00 0.00 0.00 65 1014.9
20260504234004 66 229 5.0 15.0 0.00 0.00 0.00 63 1014.9
20260504233025 67 238 5.0 14.0 0.00 0.00 0.00 59 1014.9
20260504232004 68 233 6.0 13.0 0.00 0.00 0.00 60 1015.1
20260504231025 69 248 6.0 14.0 0.00 0.00 0.00 59 1014.9